Vertical_Velocity
-0 -0 -0 -1 -1 -1 -1 -1 -0 -0 0 0 2 -1 2 2 -0 0 1 1 -1 -1 -0 1 1 -1 -0 0 1 0 0 -2 -2
-1 -1 -1 -1 -2 -1 -0 -1 -1 -1 -0 0 -0 -0 1 -1 -0 2 6 -2 -0 0 -1 -2 -2 0 2 0 -1 -1 0 0 -1
-1 -0 -1 -1 -1 -1 -0 -1 -0 -1 0 1 -0 -0 -0 1 0 -2 0 3 -1 -1 1 2 0 -1 -2 -1 1 0 -2 -1 0
-0 -1 -0 -1 -1 -1 -2 -2 -1 -1 -2 -2 -2 -1 -1 -3 -1 1 2 -0 -2 -1 -0 1 1 1 0 -1 -2 -0 1 -2 -1
-0 -0 -1 -1 -0 -1 -1 -2 -2 -1 -1 -2 -2 -2 -1 0 -0 -0 1 4 -0 -0 -3 -1 -1 -1 4 0 0 -1 -1 1 -1
-0 -0 -1 -1 -1 -2 -1 -1 -1 -0 0 0 -0 -0 1 1 -1 -1 1 -2 -2 -1 0 2 -2 -1 1 1 6 2 1 -3 1
-1 0 -1 -1 -1 -2 -2 -1 -2 -1 0 -1 -1 -0 -1 -0 -1 -1 -1 -2 -0 1 0 3 1 -0 -2 -0 -2 3 1 -1 -3
-1 0 -1 -1 -1 -2 -0 -1 -0 -0 0 1 -0 -1 -0 -1 -2 -3 -2 1 1 -0 2 9 7 4 3 4 -0 2 1 2 1
1 0 0 -3 -0 -3 -0 -0 -1 0 -1 -3 -2 -2 -2 -2 -2 -2 -2 -0 0 1 1 0 8 9 5 3 5 0 1 -1 1
-1 -1 -1 -2 0 -1 -0 -2 -1 -1 -0 -1 -2 -2 -1 1 0 -3 -3 -1 -2 -1 -2 -4 -4 3 11 7 5 2 0 1 0
-0 -1 1 -2 0 -2 -3 -2 -1 -1 -1 -1 -0 0 1 1 0 -1 -3 -3 -0 -2 -1 -0 1 1 -1 5 13 6 1 2 0
-0 -1 -1 0 -2 0 -4 -1 -2 -1 -2 -2 -2 0 0 0 -2 -2 -1 -1 -1 -0 -0 -1 2 -2 2 8 1 9 11 4 2
-2 -2 -1 -1 1 -1 -2 -1 -0 -0 -1 1 -0 -1 -1 -3 -3 -0 -0 -2 -1 -0 -2 1 1 4 1 0 -6 52 20 3 4
-1 -1 -1 -2 1 -2 -1 -1 1 -2 -1 0 -2 -1 -0 -2 -1 -4 -2 -1 -1 0 -1 -2 0 -1 2 -2 6 9 43 22 7
-2 0 -2 -2 -0 -1 0 0 0 -2 -2 -5 -1 0 0 -1 -3 -3 -1 -1 -0 -1 1 -4 1 -6 3 -4 -17 -32 33 125 12
-1 -1 -1 -1 -1 -1 -2 -1 -2 -1 0 -4 -2 -0 -1 -5 -1 -0 -2 0 4 2 -2 0 -1 3 -2 9 9 23 -20 10 10
-1 -0 1 -0 -1 0 -0 -1 -2 -2 -1 -2 -0 -6 -2 3 -1 -2 -1 1 1 1 5 0 9 6 16 -3 -11 10 15 -39 -43
-1 -0 -1 -0 -1 -1 1 -0 -2 -3 -1 -0 -1 -1 -2 -7 -0 -4 1 -4 1 4 7 -5 0 9 7 14 -18 4 -5 -26 8
0 -0 0 -1 -1 -1 -0 2 1 -1 -4 -2 2 -1 2 -0 -9 0 -3 -2 1 -2 0 -4 -7 -2 0 1 8 9 -10 -2 -11
0 1 -1 0 -0 -0 0 1 1 2 -1 -0 -0 -0 2 0 2 -6 -4 -1 -3 3 -2 0 -3 -3 -4 -3 4 12 6 4 11
Height
1527 1526 1525 1524 1523 1523 1522 1522 1521 1521 1521 1521 1520 1520 1520 1520 1520 1520 1521 1520 1520 1520 1521 1521 1522 1522 1522 1523 1522 1522 1522 1522 1522
1524 1523 1522 1521 1520 1520 1519 1518 1518 1517 1517 1517 1517 1517 1517 1516 1518 1517 1517 1516 1516 1517 1517 1518 1519 1519 1520 1520 1520 1520 1520 1519 1520
1521 1520 1519 1518 1517 1516 1516 1515 1514 1514 1514 1513 1513 1513 1513 1513 1514 1514 1513 1513 1512 1513 1514 1514 1515 1515 1516 1516 1516 1516 1516 1517 1517
1519 1517 1516 1515 1514 1513 1512 1511 1510 1510 1510 1509 1509 1509 1509 1509 1510 1510 1509 1508 1508 1509 1509 1510 1511 1511 1512 1512 1513 1513 1513 1513 1514
1517 1515 1514 1513 1511 1510 1509 1508 1507 1506 1505 1505 1504 1504 1504 1504 1505 1504 1504 1504 1503 1504 1504 1505 1506 1506 1508 1508 1509 1509 1510 1511 1511
1516 1514 1512 1511 1509 1508 1507 1505 1504 1503 1501 1500 1499 1499 1499 1499 1498 1499 1498 1497 1498 1498 1498 1499 1500 1501 1502 1503 1505 1505 1506 1507 1509
1515 1512 1511 1509 1507 1506 1505 1503 1502 1500 1499 1497 1496 1495 1494 1492 1492 1492 1490 1490 1491 1491 1492 1492 1492 1494 1496 1497 1499 1501 1502 1503 1504
1514 1512 1510 1508 1506 1505 1503 1502 1500 1498 1496 1494 1493 1491 1490 1488 1486 1485 1483 1483 1483 1483 1484 1484 1485 1486 1488 1490 1492 1494 1497 1499 1500
1513 1511 1509 1507 1506 1504 1502 1500 1499 1496 1494 1492 1490 1488 1486 1484 1482 1480 1477 1476 1475 1474 1474 1475 1476 1478 1480 1483 1485 1487 1490 1493 1495
1512 1511 1509 1507 1505 1503 1501 1500 1497 1495 1492 1489 1487 1484 1481 1479 1477 1474 1471 1470 1468 1466 1465 1466 1467 1469 1471 1474 1477 1480 1483 1486 1489
1511 1510 1508 1506 1504 1502 1500 1498 1495 1492 1489 1486 1483 1480 1478 1476 1474 1470 1466 1463 1461 1459 1457 1456 1457 1460 1463 1465 1467 1472 1475 1479 1483
1510 1509 1508 1505 1503 1501 1499 1496 1493 1489 1487 1484 1482 1479 1476 1474 1471 1467 1462 1458 1454 1451 1450 1449 1449 1451 1454 1457 1459 1464 1467 1471 1476
1510 1508 1506 1504 1502 1499 1497 1495 1492 1489 1486 1483 1480 1477 1475 1472 1468 1464 1459 1454 1450 1447 1444 1443 1444 1445 1446 1449 1450 1443 1456 1462 1468
1509 1507 1505 1503 1500 1498 1495 1493 1491 1487 1484 1481 1478 1475 1473 1470 1466 1462 1457 1452 1447 1444 1442 1441 1440 1440 1442 1442 1445 1448 1447 1449 1455
1508 1506 1504 1501 1499 1496 1494 1492 1489 1487 1483 1480 1477 1474 1472 1469 1466 1462 1456 1451 1446 1442 1439 1438 1438 1439 1439 1440 1440 1432 1422 1415 1447
1506 1504 1502 1499 1497 1495 1492 1490 1487 1485 1482 1478 1475 1473 1470 1468 1465 1461 1455 1450 1445 1441 1438 1436 1435 1434 1434 1437 1440 1440 1435 1447 1437
1504 1502 1500 1497 1495 1494 1491 1488 1485 1484 1481 1478 1475 1472 1471 1468 1464 1461 1456 1451 1446 1441 1437 1435 1433 1433 1434 1434 1434 1439 1443 1445 1448
1501 1499 1497 1495 1493 1492 1489 1486 1485 1483 1481 1479 1478 1475 1472 1466 1464 1461 1457 1452 1447 1444 1440 1437 1434 1434 1435 1437 1437 1442 1439 1444 1447
1498 1496 1494 1492 1490 1489 1487 1484 1482 1481 1480 1479 1478 1476 1473 1470 1463 1459 1458 1454 1450 1446 1443 1440 1438 1436 1437 1438 1442 1444 1444 1449 1451
1495 1493 1491 1489 1488 1486 1484 1482 1480 1478 1477 1476 1474 1474 1472 1469 1466 1460 1456 1454 1452 1447 1446 1443 1441 1438 1437 1438 1440 1441 1443 1447 1448